Location: Dal�� Lhota
(48.7500°N, 14.0167°E)
Time: 08:35:51
(UTC+00:00)

Explorer 7 - Pass Details

Date: 05 August 2021
Orbit: 484 x 676 km, 50.3° (Epoch: 21 September)

Event Time Altitude Azimuth Distance (km) Brightness Sun altitude
Rises 08:53:58 0° 284° (WNW) 2,675 10.0 47.8°
Reaches altitude 10° 08:56:34 10° 268° (W) 1,816 9.3 48.2°
Maximum altitude 08:59:38 20° 219° (SW) 1,320 9.0 48.6°
Drops below altitude 10° 09:02:50 10° 172° (S) 1,899 10.2 49.0°
Sets 09:05:37 0° 156° (SSE) 2,837 11.0 49.3°
